{"data":{"norad_id":48272,"intl_designator":"2021-034E","name":"NORSAT 3","alt_names":[],"object_type":"PAYLOAD","status":"ACTIVE","operator":null,"country":"NOR","launch_date":"2021-04-29","launch_site_code":"FRGUI","launch_vehicle":null,"mission":null,"orbit_class":"UNKNOWN","rcs_meters":null,"size_class":null,"mass_kg":null,"dimensions":null,"purposes":[],"wikipedia_slug":null,"has_3d_model":false,"image_url":null,"decayed_at":null,"tle_current":{"epoch":"2026-05-25T04:58:34.188960Z","epoch_age_seconds":53257,"freshness":"FRESH","line1":"1 48272U 21034E   26145.20734015  .00003537  00000+0  25306-3 0  9999","line2":"2 48272  97.5327 203.0315 0008172  34.8579 325.3181 15.05042999276389","mean_motion":15.05042999,"eccentricity":0.0008172,"inclination_deg":97.5327,"raan_deg":203.0315,"arg_perigee_deg":34.8579,"mean_anomaly_deg":325.3181,"bstar":0.00025306,"rev_number":27638,"period_min":95.67832951994,"perigee_km":545.71089903594,"apogee_km":557.03649131614,"semimajor_km":6929.510695176,"source":"CELESTRAK","updated_at":"2026-05-25T13:37:56.744238Z"}}}